Weather in Beregovoe

Russia / Republic of Crimea     44°24′19″N   33°53′33″E
temp.,
°C
wind,
m/s
gust,
m/s
humid.,
%
clouds,
%
prec.,
mm/h
press.,
hPa
HPBL,
m
26 july, mon
mon2600:00+21n225496 0.0 101627
03:00+21nne235231 0.0 101651
06:00+20nne336210 0.0 101639
09:00+26ne35465 0.0 10161295
12:00+28e243998 0.0 10161791
15:00+27e354588 0.0 10151793
18:00+27ne344228 0.0 10161762
21:00+21nne22584 0.1 101729
27 july, tue
tue2700:00+20nne33580 0.0 101749
03:00+20nne33540 0.0 101739
06:00+20n33520 0.0 101833
09:00+27ne36330 0.0 10181959
12:00+29ne342911 0.0 10172766
15:00+29n233164 0.0 10172235
18:00+25nw244772 0.0 10181014
21:00+21ne11595 0.0 101911
28 july, wed
wed2800:00+19ene34733 0.0 102066
03:00+18nne22720 0.0 101937
06:00+18ne23690 0.0 101953
09:00+25e224527 0.0 1019710
12:00+26ese144086 0.0 10181597
15:00+24nw125982 0.0 1018525
18:00+25nnw13548 0.2 10171147
21:00+20n22710 0.2 101817
29 july, thu
thu2900:00+19n22700 0.0 101830
03:00+19n22680 0.0 101727
06:00+19n22710 0.0 101622
09:00+26ese11490 0.0 1015627
12:00+27ssw134350 0.0 10151369
15:00+26w235053 0.0 1015924
18:00+27nnw13450 0.0 10141114
21:00+21nne01650 0.0 101412
30 july, fri
fri3000:00+20n22610 0.0 101425
03:00+20n22563 0.0 101431
06:00+21nne11580 0.0 101311
09:00+26wsw11450 0.0 1013536
12:00+29wsw23380 0.0 10131488
15:00+30nw12382 0.0 10121783
18:00+27n22470 0.0 1012726
21:00+22nne22660 0.0 101325